| time (UTC) | temp F | wind direction | speed MPH | gust MPH | rain 1hr in | rain 24hr in | rain mn in | humidity % | barometer mb |
| 20260509032127 | 53 | 51 | 0.0 | 4.0 | 0.00 | 0.00 | 0.00 | 81 | 1017.3 |
| 20260509031117 | 53 | 218 | 1.0 | 3.0 | 0.00 | 0.00 | 0.00 | 83 | 1017.4 |
| 20260509030126 | 53 | 222 | 0.0 | 2.0 | 0.00 | 0.00 | 0.00 | 83 | 1017.3 |
| 20260509025132 | 54 | 219 | 0.0 | 2.0 | 0.00 | 0.00 | 0.00 | 81 | 1017.3 |
| 20260509024120 | 54 | 219 | 0.0 | 2.0 | 0.00 | 0.00 | 0.00 | 79 | 1017.4 |
| 20260509023152 | 54 | 215 | 0.0 | 2.0 | 0.00 | 0.00 | 0.00 | 79 | 1017.5 |
| 20260509022118 | 54 | 215 | 0.0 | 2.0 | 0.00 | 0.00 | 0.00 | 79 | 1017.4 |
| 20260509021127 | 55 | 224 | 1.0 | 3.0 | 0.00 | 0.00 | 0.00 | 79 | 1017.2 |
| 20260509020153 | 55 | 157 | 1.0 | 3.0 | 0.00 | 0.00 | 0.00 | 78 | 1017.1 |
| 20260509015144 | 55 | 95 | 2.0 | 3.0 | 0.00 | 0.00 | 0.00 | 78 | 1017.1 |
| 20260509014130 | 55 | 163 | 0.0 | 3.0 | 0.00 | 0.00 | 0.00 | 78 | 1017.3 |
| 20260509013119 | 54 | 174 | 0.0 | 3.0 | 0.00 | 0.00 | 0.00 | 81 | 1017.3 |
| 20260509012127 | 53 | 169 | 2.0 | 5.0 | 0.00 | 0.00 | 0.00 | 84 | 1017.4 |
| 20260509011116 | 52 | 213 | 0.0 | 0.0 | 0.00 | 0.00 | 0.00 | 87 | 1017.4 |
| 20260509010124 | 52 | 213 | 0.0 | 1.0 | 0.00 | 0.00 | 0.00 | 87 | 1017.6 |
| 20260509005131 | 53 | 213 | 0.0 | 2.0 | 0.00 | 0.00 | 0.00 | 86 | 1017.6 |
| 20260509004116 | 52 | 213 | 1.0 | 2.0 | 0.00 | 0.00 | 0.00 | 87 | 1017.6 |
| 20260509003129 | 52 | 213 | 0.0 | 2.0 | 0.00 | 0.00 | 0.00 | 88 | 1017.5 |
| 20260509002147 | 52 | 213 | 2.0 | 4.0 | 0.00 | 0.00 | 0.00 | 89 | 1017.5 |
| 20260509001133 | 52 | 24 | 1.0 | 3.0 | 0.00 | 0.00 | 0.00 | 88 | 1017.5 |
| 20260509000119 | 52 | 34 | 1.0 | 2.0 | 0.00 | 0.00 | 0.00 | 88 | 1017.5 |
| 20260508235133 | 52 | 34 | 0.0 | 1.0 | 0.00 | 0.00 | 0.00 | 87 | 1017.4 |
| 20260508234118 | 53 | 34 | 0.0 | 2.0 | 0.00 | 0.00 | 0.00 | 87 | 1017.5 |
| 20260508233148 | 53 | 34 | 1.0 | 2.0 | 0.00 | 0.00 | 0.00 | 85 | 1017.5 |
| 20260508232134 | 55 | 34 | 1.0 | 3.0 | 0.00 | 0.00 | 0.00 | 81 | 1017.6 |
| 20260508231123 | 56 | 32 | 1.0 | 4.0 | 0.00 | 0.00 | 0.00 | 77 | 1017.4 |
| 20260508230150 | 56 | 325 | 1.0 | 6.0 | 0.00 | 0.00 | 0.00 | 79 | 1017.4 |
| 20260508225117 | 55 | 261 | 0.0 | 3.0 | 0.00 | 0.00 | 0.00 | 81 | 1017.4 |
| 20260508224126 | 54 | 263 | 0.0 | 2.0 | 0.00 | 0.00 | 0.00 | 85 | 1017.4 |
| 20260508223119 | 53 | 230 | 1.0 | 3.0 | 0.00 | 0.00 | 0.00 | 88 | 1017.4 |
| 20260508222127 | 53 | 230 | 1.0 | 2.0 | 0.00 | 0.00 | 0.00 | 88 | 1017.4 |
| 20260508221132 | 53 | 230 | 0.0 | 2.0 | 0.00 | 0.00 | 0.00 | 88 | 1017.5 |
| 20260508220120 | 53 | 230 | 0.0 | 2.0 | 0.00 | 0.00 | 0.00 | 88 | 1017.5 |
| 20260508215133 | 54 | 230 | 0.0 | 3.0 | 0.00 | 0.00 | 0.00 | 88 | 1017.5 |
| 20260508214118 | 54 | 230 | 0.0 | 2.0 | 0.00 | 0.00 | 0.00 | 88 | 1017.4 |
| 20260508213126 | 54 | 230 | 0.0 | 2.0 | 0.00 | 0.00 | 0.00 | 88 | 1017.4 |
| 20260508212133 | 53 | 230 | 1.0 | 3.0 | 0.00 | 0.00 | 0.00 | 89 | 1017.4 |
| 20260508211122 | 53 | 230 | 1.0 | 3.0 | 0.00 | 0.00 | 0.00 | 89 | 1017.3 |
| 20260508210147 | 53 | 230 | 1.0 | 4.0 | 0.00 | 0.00 | 0.00 | 90 | 1017.3 |
| 20260508205150 | 54 | 309 | 1.0 | 2.0 | 0.00 | 0.00 | 0.00 | 90 | 1017.2 |
| 20260508204134 | 54 | 309 | 0.0 | 3.0 | 0.00 | 0.00 | 0.00 | 89 | 1017.2 |
| 20260508203119 | 54 | 309 | 1.0 | 2.0 | 0.00 | 0.00 | 0.00 | 89 | 1017.2 |
| 20260508202128 | 54 | 309 | 0.0 | 2.0 | 0.00 | 0.00 | 0.00 | 89 | 1017.1 |
| 20260508201155 | 55 | 309 | 0.0 | 1.0 | 0.00 | 0.00 | 0.00 | 89 | 1017.1 |
| 20260508200134 | 55 | 309 | 0.0 | 2.0 | 0.00 | 0.00 | 0.00 | 89 | 1017.1 |
| 20260508195138 | 55 | 309 | 1.0 | 3.0 | 0.00 | 0.00 | 0.00 | 89 | 1017.0 |
| 20260508194126 | 56 | 309 | 1.0 | 2.0 | 0.00 | 0.00 | 0.00 | 88 | 1016.9 |
| 20260508193136 | 56 | 309 | 0.0 | 3.0 | 0.00 | 0.00 | 0.00 | 87 | 1016.8 |
| 20260508192122 | 57 | 309 | 1.0 | 3.0 | 0.00 | 0.00 | 0.00 | 87 | 1016.6 |
| 20260508191129 | 57 | 309 | 1.0 | 3.0 | 0.00 | 0.00 | 0.00 | 87 | 1016.4 |
| 20260508190119 | 58 | 310 | 0.0 | 1.0 | 0.00 | 0.00 | 0.00 | 85 | 1016.3 |
| 20260508185147 | 59 | 310 | 0.0 | 2.0 | 0.00 | 0.00 | 0.00 | 86 | 1016.2 |
| 20260508184133 | 59 | 310 | 0.0 | 1.0 | 0.00 | 0.00 | 0.00 | 86 | 1016.1 |
| 20260508183120 | 60 | 310 | 0.0 | 2.0 | 0.00 | 0.00 | 0.00 | 84 | 1015.9 |
| 20260508182131 | 61 | 310 | 0.0 | 1.0 | 0.00 | 0.00 | 0.00 | 82 | 1015.9 |
| 20260508181117 | 61 | 310 | 0.0 | 2.0 | 0.00 | 0.00 | 0.00 | 83 | 1015.8 |
| 20260508180126 | 61 | 310 | 0.0 | 2.0 | 0.00 | 0.00 | 0.00 | 82 | 1015.8 |
| 20260508175153 | 62 | 310 | 0.0 | 1.0 | 0.00 | 0.00 | 0.00 | 81 | 1015.7 |
| 20260508174125 | 63 | 310 | 0.0 | 1.0 | 0.00 | 0.00 | 0.00 | 79 | 1015.6 |
| 20260508173151 | 64 | 310 | 0.0 | 0.0 | 0.00 | 0.00 | 0.00 | 71 | 1015.6 |
| 20260508172118 | 65 | 310 | 0.0 | 2.0 | 0.00 | 0.00 | 0.00 | 72 | 1015.6 |
| 20260508171125 | 66 | 310 | 0.0 | 2.0 | 0.00 | 0.00 | 0.00 | 65 | 1015.5 |
| 20260508170117 | 66 | 310 | 0.0 | 2.0 | 0.00 | 0.00 | 0.00 | 67 | 1015.5 |
| 20260508165122 | 67 | 310 | 0.0 | 1.0 | 0.00 | 0.00 | 0.00 | 62 | 1015.4 |
| 20260508164128 | 67 | 310 | 0.0 | 2.0 | 0.00 | 0.00 | 0.00 | 59 | 1015.3 |
| 20260508163134 | 68 | 310 | 0.0 | 2.0 | 0.00 | 0.00 | 0.00 | 61 | 1015.3 |
| 20260508162127 | 67 | 338 | 0.0 | 4.0 | 0.00 | 0.00 | 0.00 | 63 | 1015.3 |
| 20260508161134 | 66 | 213 | 0.0 | 1.0 | 0.00 | 0.00 | 0.00 | 65 | 1015.4 |
| 20260508160120 | 65 | 213 | 0.0 | 1.0 | 0.00 | 0.00 | 0.00 | 69 | 1015.6 |
| 20260508155128 | 64 | 213 | 0.0 | 2.0 | 0.00 | 0.00 | 0.00 | 71 | 1015.7 |
| 20260508154120 | 64 | 213 | 0.0 | 0.0 | 0.00 | 0.00 | 0.00 | 73 | 1015.7 |
| 20260508153129 | 64 | 213 | 0.0 | 1.0 | 0.00 | 0.00 | 0.00 | 70 | 1015.8 |
| 20260508152117 | 64 | 213 | 0.0 | 1.0 | 0.00 | 0.00 | 0.00 | 72 | 1015.8 |
| 20260508151124 | 63 | 213 | 0.0 | 1.0 | 0.00 | 0.00 | 0.00 | 73 | 1015.8 |
| 20260508150137 | 63 | 213 | 0.0 | 1.0 | 0.00 | 0.00 | 0.00 | 75 | 1015.9 |
| 20260508145124 | 62 | 213 | 0.0 | 2.0 | 0.00 | 0.00 | 0.00 | 77 | 1016.1 |
| 20260508144153 | 61 | 213 | 0.0 | 3.0 | 0.00 | 0.00 | 0.00 | 77 | 1016.2 |
| 20260508143158 | 61 | 213 | 1.0 | 3.0 | 0.00 | 0.00 | 0.00 | 77 | 1016.3 |
| 20260508142126 | 61 | 213 | 0.0 | 3.0 | 0.00 | 0.00 | 0.00 | 77 | 1016.4 |
| 20260508141133 | 60 | 212 | 0.0 | 6.0 | 0.00 | 0.00 | 0.00 | 76 | 1016.4 |
| 20260508140120 | 60 | 241 | 2.0 | 5.0 | 0.00 | 0.00 | 0.00 | 77 | 1016.5 |
| 20260508135128 | 60 | 262 | 1.0 | 6.0 | 0.00 | 0.08 | 0.00 | 80 | 1016.5 |
| 20260508134119 | 60 | 250 | 0.0 | 7.0 | 0.00 | 0.08 | 0.00 | 81 | 1016.5 |
| 20260508133127 | 60 | 243 | 2.0 | 6.0 | 0.00 | 0.08 | 0.00 | 79 | 1016.7 |
| 20260508132134 | 60 | 184 | 1.0 | 7.0 | 0.00 | 0.08 | 0.00 | 79 | 1016.7 |
| 20260508131120 | 60 | 281 | 2.0 | 6.0 | 0.00 | 0.08 | 0.00 | 79 | 1016.7 |
| 20260508130133 | 60 | 275 | 3.0 | 7.0 | 0.00 | 0.08 | 0.00 | 81 | 1016.7 |
| 20260508125119 | 60 | 277 | 1.0 | 6.0 | 0.00 | 0.08 | 0.00 | 81 | 1016.7 |
| 20260508124127 | 61 | 254 | 2.0 | 6.0 | 0.00 | 0.08 | 0.00 | 79 | 1016.7 |
| 20260508123132 | 61 | 261 | 1.0 | 6.0 | 0.00 | 0.08 | 0.00 | 76 | 1016.6 |
| 20260508122125 | 61 | 269 | 1.0 | 4.0 | 0.00 | 0.08 | 0.00 | 75 | 1016.6 |
| 20260508121134 | 61 | 257 | 2.0 | 7.0 | 0.00 | 0.08 | 0.00 | 72 | 1016.7 |
| 20260508120122 | 61 | 259 | 2.0 | 6.0 | 0.00 | 0.08 | 0.00 | 77 | 1016.7 |
| 20260508115151 | 62 | 255 | 2.0 | 8.0 | 0.00 | 0.08 | 0.00 | 74 | 1016.6 |
| 20260508114121 | 63 | 246 | 4.0 | 9.0 | 0.00 | 0.08 | 0.00 | 72 | 1016.6 |
| 20260508113127 | 64 | 256 | 2.0 | 7.0 | 0.00 | 0.08 | 0.00 | 73 | 1016.7 |
| 20260508112136 | 66 | 274 | 1.0 | 3.0 | 0.00 | 0.08 | 0.00 | 70 | 1016.7 |
| 20260508111123 | 66 | 33 | 2.0 | 5.0 | 0.00 | 0.08 | 0.00 | 71 | 1016.7 |
| 20260508110136 | 66 | 250 | 0.0 | 4.0 | 0.00 | 0.08 | 0.00 | 66 | 1016.7 |
| 20260508105122 | 67 | 90 | 0.0 | 3.0 | 0.00 | 0.08 | 0.00 | 66 | 1016.8 |
| 20260508104128 | 67 | 216 | 1.0 | 6.0 | 0.00 | 0.08 | 0.00 | 65 | 1016.8 |
| 20260508103120 | 66 | 171 | 1.0 | 4.0 | 0.00 | 0.08 | 0.00 | 69 | 1016.8 |
| 20260508102150 | 66 | 171 | 1.0 | 2.0 | 0.00 | 0.08 | 0.00 | 65 | 1016.9 |
| 20260508101136 | 65 | 171 | 0.0 | 2.0 | 0.00 | 0.08 | 0.00 | 67 | 1017.0 |
| 20260508100123 | 65 | 171 | 0.0 | 4.0 | 0.00 | 0.08 | 0.00 | 68 | 1016.9 |
| 20260508095131 | 65 | 147 | 0.0 | 4.0 | 0.00 | 0.08 | 0.00 | 69 | 1017.0 |
| 20260508094124 | 65 | 41 | 0.0 | 4.0 | 0.00 | 0.08 | 0.00 | 69 | 1017.0 |
| 20260508093131 | 64 | 123 | 0.0 | 5.0 | 0.00 | 0.08 | 0.00 | 70 | 1017.0 |
| 20260508092119 | 64 | 43 | 0.0 | 3.0 | 0.00 | 0.08 | 0.00 | 72 | 1017.0 |
| 20260508091128 | 63 | 42 | 1.0 | 4.0 | 0.00 | 0.08 | 0.00 | 74 | 1017.0 |
| 20260508090116 | 63 | 42 | 1.0 | 4.0 | 0.00 | 0.08 | 0.00 | 74 | 1016.9 |
| 20260508085124 | 63 | 200 | 1.0 | 3.0 | 0.00 | 0.08 | 0.00 | 70 | 1017.0 |
| 20260508084131 | 62 | 209 | 1.0 | 3.0 | 0.00 | 0.08 | 0.00 | 71 | 1016.9 |
| 20260508083122 | 62 | 178 | 1.0 | 5.0 | 0.00 | 0.08 | 0.00 | 71 | 1017.0 |
| 20260508082131 | 62 | 165 | 0.0 | 2.0 | 0.00 | 0.08 | 0.00 | 71 | 1016.9 |
| 20260508081136 | 62 | 201 | 1.0 | 2.0 | 0.00 | 0.08 | 0.00 | 71 | 1016.9 |
| 20260508080126 | 62 | 200 | 0.0 | 1.0 | 0.00 | 0.08 | 0.00 | 73 | 1016.8 |
| 20260508075137 | 61 | 200 | 0.0 | 2.0 | 0.00 | 0.08 | 0.00 | 73 | 1016.8 |
| 20260508074124 | 61 | 200 | 0.0 | 3.0 | 0.00 | 0.08 | 0.00 | 74 | 1016.8 |
| 20260508073132 | 62 | 215 | 0.0 | 3.0 | 0.00 | 0.08 | 0.00 | 74 | 1016.7 |
| 20260508072118 | 62 | 79 | 0.0 | 2.0 | 0.00 | 0.08 | 0.00 | 72 | 1016.6 |
| 20260508071130 | 62 | 79 | 0.0 | 1.0 | 0.00 | 0.08 | 0.00 | 73 | 1016.6 |
| 20260508070118 | 61 | 79 | 0.0 | 1.0 | 0.00 | 0.08 | 0.00 | 75 | 1016.5 |
| 20260508065145 | 61 | 79 | 0.0 | 1.0 | 0.00 | 0.08 | 0.00 | 77 | 1016.5 |
| 20260508064133 | 61 | 79 | 0.0 | 3.0 | 0.00 | 0.08 | 0.00 | 76 | 1016.4 |
| 20260508063123 | 60 | 79 | 0.0 | 1.0 | 0.00 | 0.08 | 0.00 | 78 | 1016.4 |
| 20260508062129 | 59 | 79 | 0.0 | 0.0 | 0.00 | 0.08 | 0.00 | 80 | 1016.3 |
| 20260508061136 | 57 | 79 | 0.0 | 0.0 | 0.00 | 0.08 | 0.00 | 84 | 1016.2 |
| 20260508060125 | 56 | 79 | 0.0 | 1.0 | 0.00 | 0.08 | 0.00 | 83 | 1016.1 |
| 20260508055157 | 56 | 79 | 0.0 | 2.0 | 0.00 | 0.08 | 0.00 | 81 | 1016.0 |
| 20260508054124 | 56 | 79 | 0.0 | 2.0 | 0.00 | 0.08 | 0.00 | 81 | 1015.9 |
| 20260508053129 | 55 | 79 | 0.0 | 1.0 | 0.00 | 0.08 | 0.00 | 80 | 1015.9 |
| 20260508052134 | 55 | 79 | 1.0 | 3.0 | 0.00 | 0.08 | 0.00 | 79 | 1015.8 |
| 20260508051126 | 55 | 79 | 0.0 | 2.0 | 0.00 | 0.08 | 0.00 | 80 | 1015.8 |
| 20260508050133 | 54 | 78 | 0.0 | 2.0 | 0.00 | 0.08 | 0.00 | 81 | 1015.7 |
| 20260508045119 | 54 | 78 | 0.0 | 0.0 | 0.00 | 0.08 | 0.00 | 84 | 1015.6 |
| 20260508044128 | 54 | 78 | 0.0 | 3.0 | 0.00 | 0.08 | 0.00 | 84 | 1015.6 |
| 20260508043119 | 53 | 78 | 0.0 | 2.0 | 0.00 | 0.08 | 0.00 | 85 | 1015.5 |
| 20260508042128 | 53 | 78 | 0.0 | 0.0 | 0.00 | 0.08 | 0.00 | 85 | 1015.4 |
| 20260508041117 | 53 | 78 | 0.0 | 2.0 | 0.00 | 0.08 | 0.00 | 85 | 1015.3 |
| 20260508040146 | 53 | 78 | 1.0 | 3.0 | 0.00 | 0.08 | 0.00 | 85 | 1015.3 |
| 20260508035117 | 53 | 76 | 0.0 | 3.0 | 0.00 | 0.08 | 0.00 | 85 | 1015.1 |
| 20260508034127 | 54 | 76 | 0.0 | 3.0 | 0.00 | 0.08 | 0.00 | 82 | 1015.3 |
| 20260508033134 | 55 | 36 | 0.0 | 3.0 | 0.00 | 0.08 | 0.00 | 79 | 1015.1 |